User: anonymous   Login
Location: Lone Wolf Observatory
(41.0360°N, 89.2260°W)
Time: 02:51:18
(UTC-06:00)
Language:

Cosmos 1378 Rocket - Orbit

View from above orbital plane
View from above orbital plane
View from above satellite
View from above satellite

Ground track
Ground track

The orbit data is extracted from the following two-line orbital elements,

1 13272U 82059B   15061.46307699  .00000710  00000-0  81636-4 0  9992
2 13272 082.5110 206.1707 0018837 008.1828 351.9691 14.84277413767613
Epoch (UTC): 02 March 2015 11:06:49
Eccentricity: 0.0018837
inclination: 82.5110°
perigee height: 602 km
apogee height: 629 km
right ascension of ascending node: 206.1707°
argument of perigee: 8.1828°
revolutions per day: 14.84277413
mean anomaly at epoch: 351.9691°
orbit number at epoch: 76761

The dashed part of the orbit path shows where the satellite is in the earth's shadow,  

DLR